EW0105 Weather Reports


Display with metric or nautical units.
time (UTC)temp
F
wind
direction
speed
MPH
gust
MPH
rain 1hr
in
rain 24hr
in
rain mn
in
humidity
%
barometer
mb
20180920121343 71 172 0.0 0.0 0.00 0.00 0.00 93 1015.0
20180920115838 71 172 0.0 2.0 0.00 0.00 0.00 93 1014.8
20180920114337 71 175 0.0 0.0 0.00 0.00 0.00 93 1014.6
20180920112836 71 177 0.0 0.0 0.00 0.00 0.00 93 1014.6
20180920111335 71 177 0.0 0.0 0.00 0.00 0.00 93 1014.5
20180920105834 71 177 0.0 0.0 0.00 0.00 0.00 93 1014.4
20180920104334 71 177 0.0 0.0 0.00 0.00 0.00 93 1014.3
20180920102833 71 177 0.0 0.0 0.00 0.00 0.00 93 1014.4
20180920101332 71 177 0.0 0.0 0.00 0.00 0.00 93 1014.4
20180920095831 71 177 0.0 0.0 0.00 0.00 0.00 93 1014.2
20180920094331 71 177 0.0 0.0 0.00 0.00 0.00 93 1014.2
20180920092830 71 178 0.0 0.0 0.00 0.00 0.00 92 1014.2
20180920091330 72 178 0.0 0.0 0.00 0.00 0.00 92 1014.2
20180920085830 72 178 0.0 0.0 0.00 0.00 0.00 92 1014.4
20180920084327 72 178 0.0 0.0 0.00 0.00 0.00 92 1014.3
20180920082826 72 178 0.0 0.0 0.00 0.00 0.00 91 1014.3
20180920081326 72 178 0.0 0.0 0.00 0.00 0.00 91 1014.2
20180920075827 72 178 0.0 0.0 0.00 0.00 0.00 91 1014.2
20180920074322 72 178 0.0 0.0 0.00 0.00 0.00 90 1014.0
20180920072822 72 178 0.0 0.0 0.00 0.00 0.00 90 1013.9
20180920071319 72 178 0.0 0.0 0.00 0.00 0.00 90 1014.0
20180920065818 73 178 0.0 0.0 0.00 0.00 0.00 89 1013.8
20180920064322 73 178 0.0 0.0 0.00 0.00 0.00 89 1013.9
20180920062818 73 178 0.0 0.0 0.00 0.00 0.00 89 1013.9
20180920061315 73 178 0.0 0.0 0.00 0.00 0.00 89 1013.7
20180920055815 73 178 0.0 0.0 0.00 0.00 0.00 88 1013.6
20180920054309 74 177 0.0 0.0 0.00 0.00 0.00 88 1013.6
20180920052810 74 178 0.0 0.0 0.00 0.00 0.00 88 1013.5
20180920051307 74 178 0.0 0.0 0.00 0.00 0.00 86 1013.4
20180920045804 74 190 0.0 0.0 0.00 0.00 0.00 87 1013.4
20180920044304 74 207 0.0 0.0 0.00 0.00 0.00 86 1013.4
20180920042804 75 207 0.0 0.0 0.00 0.00 0.00 86 1013.5
20180920041303 75 207 0.0 0.0 0.00 0.00 0.00 85 1013.4
20180920035801 76 207 0.0 0.0 0.00 0.00 0.00 84 1013.6
20180920034302 76 207 0.0 0.0 0.00 0.00 0.00 84 1013.6
20180920032804 76 207 0.0 0.0 0.00 0.00 0.00 84 1013.6
20180920031301 76 207 0.0 0.0 0.00 0.00 0.00 82 1013.7
20180920025800 77 207 0.0 0.0 0.00 0.00 0.00 80 1013.7
20180920024302 77 208 0.0 0.0 0.00 0.00 0.00 80 1013.6
20180920022800 77 211 0.0 0.0 0.00 0.00 0.00 80 1013.6
20180920021301 78 212 0.0 0.0 0.00 0.00 0.00 79 1013.5
20180920015759 79 212 0.0 0.0 0.00 0.00 0.00 78 1013.8
20180920014259 79 212 0.0 0.0 0.00 0.00 0.00 77 1013.8
20180920012757 79 212 0.0 0.0 0.00 0.00 0.00 77 1013.7
20180920011258 80 212 0.0 0.0 0.00 0.00 0.00 76 1013.6
20180920005755 81 215 0.0 4.0 0.00 0.00 0.00 76 1013.3
20180920004255 81 198 0.0 0.0 0.00 0.00 0.00 76 1013.1
20180920002756 82 217 0.0 0.0 0.00 0.00 0.00 75 1013.1
20180920001257 83 221 0.0 0.0 0.00 0.00 0.00 73 1013.1
20180919235754 83 221 0.0 0.0 0.00 0.00 0.00 72 1012.9
20180919234256 84 221 0.0 0.0 0.00 0.00 0.00 70 1013.0
20180919232753 85 221 0.0 0.0 0.00 0.00 0.00 68 1013.0
20180919231253 86 211 0.0 0.0 0.00 0.00 0.00 65 1012.8
20180919225751 87 225 0.0 0.0 0.00 0.00 0.00 63 1012.7
20180919224254 88 236 0.0 0.0 0.00 0.00 0.00 61 1012.8
20180919222751 88 230 0.0 0.0 0.00 0.00 0.00 62 1012.7
20180919221250 88 208 0.0 0.0 0.00 0.00 0.00 61 1012.6
20180919215750 89 196 0.0 0.0 0.00 0.00 0.00 60 1012.5
20180919214248 89 207 0.0 2.0 0.00 0.00 0.00 60 1012.4
20180919212749 89 166 0.0 5.0 0.00 0.00 0.00 60 1012.4
20180919211247 89 244 0.0 1.0 0.00 0.00 0.00 62 1012.4
20180919205748 89 227 0.0 7.0 0.00 0.00 0.00 62 1012.3
20180919204247 88 273 0.0 6.0 0.00 0.00 0.00 62 1012.5
20180919202746 88 257 0.0 0.0 0.00 0.00 0.00 63 1012.6
20180919201245 88 261 0.0 5.0 0.00 0.00 0.00 62 1012.8
20180919195744 88 283 0.0 2.0 0.00 0.00 0.00 61 1012.9
20180919194245 88 293 0.0 6.0 0.00 0.00 0.00 60 1013.0
20180919192744 88 273 0.0 7.0 0.00 0.00 0.00 60 1013.3
20180919191243 88 218 0.0 6.0 0.00 0.00 0.00 59 1013.3
20180919185741 89 225 1.0 8.0 0.00 0.00 0.00 60 1013.4
20180919184241 89 223 2.0 9.0 0.00 0.00 0.00 59 1013.5
20180919182743 88 229 3.0 9.0 0.00 0.00 0.00 59 1013.5
20180919181244 89 205 0.0 10.0 0.00 0.00 0.00 59 1013.6
20180919175740 88 150 2.0 9.0 0.00 0.00 0.00 61 1013.7
20180919174242 89 202 1.0 8.0 0.00 0.00 0.00 60 1013.9
20180919172738 89 213 1.0 8.0 0.00 0.00 0.00 57 1014.0
20180919171235 88 223 3.0 7.0 0.00 0.00 0.00 58 1014.0
20180919165735 87 244 1.0 7.0 0.00 0.00 0.00 63 1014.3
20180919164232 87 205 2.0 9.0 0.00 0.00 0.00 63 1014.4
20180919162730 85 180 0.0 6.0 0.00 0.00 0.00 64 1014.5
20180919161225 85 172 1.0 7.0 0.00 0.00 0.00 69 1014.5
20180919155720 83 178 1.0 8.0 0.00 0.00 0.00 72 1014.6
20180919154221 82 184 0.0 5.0 0.00 0.00 0.00 72 1014.7
20180919152715 81 171 0.0 0.0 0.00 0.00 0.00 75 1014.6
20180919151213 80 171 0.0 4.0 0.00 0.00 0.00 76 1014.4
20180919145709 79 82 1.0 5.0 0.00 0.00 0.00 78 1014.3
20180919144206 78 108 0.0 5.0 0.00 0.00 0.00 81 1014.4
20180919142702 77 157 0.0 4.0 0.00 0.00 0.00 82 1014.3
20180919141159 75 160 0.0 0.0 0.00 0.00 0.00 84 1014.3
20180919135658 75 161 0.0 0.0 0.00 0.00 0.00 85 1014.3
20180919134150 73 162 0.0 0.0 0.00 0.00 0.00 88 1014.2
20180919132650 72 162 0.0 1.0 0.00 0.00 0.00 90 1014.1
20180919131148 71 101 0.0 2.0 0.00 0.00 0.00 91 1013.7
20180919125646 70 101 0.0 5.0 0.00 0.00 0.00 92 1013.6
20180919124148 70 88 0.0 4.0 0.00 0.00 0.00 92 1013.3
20180919122647 69 120 0.0 2.0 0.00 0.00 0.00 93 1013.2